Powrót do katalogu

STARLINK-35700

AktywnyŁącznośćVLEO
NORAD 66217·PAYLOAD·🇺🇸 United States

Wystrzelony Oct 28, 2025 z Vandenberg Space Force Base

Loading…

Następne Przeloty (najbliższe 24 godziny)

TLE

ŚwieżeSource: CelesTrak SupGP

Epoka: Sep 14, 2026, 22:55 UTC

1 66217C 25244M   26257.95534722  .00038705  00000+0  11438-2 0  2576
2 66217  53.1594  69.4022 0001229  80.8613  24.7341 15.34365028    13

Śledź STARLINK-35700 w czasie rzeczywistym z AllMySat

Download on the App Store